Time,TemperatureF,DewpointF,PressureIn,WindDirection,WindDirectionDegrees,WindSpeedMPH,WindSpeedGustMPH,Humidity,HourlyPrecipIn,Conditions,Clouds,dailyrainin,SoftwareType,DateUTC
2013-05-07 00:14:00,61.4,53.0,29.96,WNW,294,6.0,-999.0,73,-99.99,,,0.00,weatherlink.com 1.10,2013-05-07 04:14:00,
2013-05-07 00:28:00,61.1,53.0,29.95,NNW,336,5.0,-999.0,74,-99.99,,,0.00,weatherlink.com 1.10,2013-05-07 04:28:00,
2013-05-07 00:43:00,61.0,53.0,29.95,WNW,292,0.0,-999.0,75,-99.99,,,0.00,weatherlink.com 1.10,2013-05-07 04:43:00,
2013-05-07 00:58:00,60.9,53.0,29.95,WNW,300,4.0,-999.0,75,-99.99,,,0.00,weatherlink.com 1.10,2013-05-07 04:58:00,
2013-05-07 01:14:00,60.8,53.0,29.95,WNW,282,6.0,-999.0,75,-99.99,,,0.00,weatherlink.com 1.10,2013-05-07 05:14:00,
2013-05-07 01:28:00,60.5,53.0,29.95,WNW,292,4.0,-999.0,77,-99.99,,,0.00,weatherlink.com 1.10,2013-05-07 05:28:00,
2013-05-07 01:43:00,60.2,53.0,29.95,WNW,290,6.0,-999.0,77,-99.99,,,0.00,weatherlink.com 1.10,2013-05-07 05:43:00,
2013-05-07 01:58:00,60.1,53.0,29.94,WNW,294,5.0,-999.0,78,-99.99,,,0.00,weatherlink.com 1.10,2013-05-07 05:58:00,
2013-05-07 02:14:00,59.9,53.0,29.94,NW,309,4.0,-999.0,78,-99.99,,,0.00,weatherlink.com 1.10,2013-05-07 06:14:00,
2013-05-07 02:28:00,59.6,53.0,29.93,WNW,292,5.0,-999.0,79,-99.99,,,0.00,weatherlink.com 1.10,2013-05-07 06:28:00,
2013-05-07 02:43:00,59.6,53.0,29.93,WNW,292,4.0,-999.0,79,-99.99,,,0.00,weatherlink.com 1.10,2013-05-07 06:43:00,
2013-05-07 02:58:00,59.6,53.0,29.93,WNW,300,4.0,-999.0,79,-99.99,,,0.00,weatherlink.com 1.10,2013-05-07 06:58:00,
2013-05-07 03:14:00,59.6,53.0,29.93,WNW,296,3.0,-999.0,79,-99.99,,,0.00,weatherlink.com 1.10,2013-05-07 07:14:00,
2013-05-07 03:28:00,59.3,54.0,29.93,WNW,296,4.0,-999.0,81,-99.99,,,0.00,weatherlink.com 1.10,2013-05-07 07:28:00,
2013-05-07 03:43:00,59.3,54.0,29.93,WNW,295,3.0,-999.0,81,-99.99,,,0.00,weatherlink.com 1.10,2013-05-07 07:43:00,
2013-05-07 03:58:00,59.0,54.0,29.93,WNW,285,5.0,-999.0,82,-99.99,,,0.00,weatherlink.com 1.10,2013-05-07 07:58:00,
2013-05-07 04:14:00,58.9,54.0,29.93,WNW,284,4.0,-999.0,83,-99.99,,,0.00,weatherlink.com 1.10,2013-05-07 08:14:00,
2013-05-07 04:28:00,58.9,54.0,29.93,WNW,292,2.0,-999.0,84,-99.99,,,0.00,weatherlink.com 1.10,2013-05-07 08:28:00,
2013-05-07 04:43:00,59.1,54.0,29.93,WNW,288,4.0,-999.0,84,-99.99,,,0.00,weatherlink.com 1.10,2013-05-07 08:43:00,
2013-05-07 04:58:00,59.0,54.0,29.93,West,281,5.0,-999.0,84,-99.99,,,0.00,weatherlink.com 1.10,2013-05-07 08:58:00,
2013-05-07 05:14:00,58.9,54.0,29.92,West,275,3.0,-999.0,85,-99.99,,,0.00,weatherlink.com 1.10,2013-05-07 09:14:00,
2013-05-07 05:28:00,59.0,55.0,29.93,West,278,4.0,-999.0,85,-99.99,,,0.00,weatherlink.com 1.10,2013-05-07 09:28:00,
2013-05-07 05:43:00,58.9,54.0,29.93,West,279,5.0,-999.0,84,-99.99,,,0.00,weatherlink.com 1.10,2013-05-07 09:43:00,
2013-05-07 05:58:00,58.8,54.0,29.93,West,269,3.0,-999.0,85,-99.99,,,0.00,weatherlink.com 1.10,2013-05-07 09:58:00,
2013-05-07 06:14:00,58.9,54.0,29.94,West,274,4.0,-999.0,85,-99.99,,,0.00,weatherlink.com 1.10,2013-05-07 10:14:00,
2013-05-07 06:28:00,58.8,54.0,29.95,West,277,5.0,-999.0,85,-99.99,,,0.00,weatherlink.com 1.10,2013-05-07 10:28:00,
2013-05-07 06:43:00,-999.0,-99.9,29.95,North,-999,-999.0,-999.0,-999,-99.99,,,0.00,weatherlink.com 1.10,2013-05-07 10:43:00,
2013-05-07 06:58:00,-999.0,-99.9,29.96,North,-999,-999.0,-999.0,-999,-99.99,,,0.00,weatherlink.com 1.10,2013-05-07 10:58:00,
2013-05-07 07:14:00,-999.0,-99.9,29.96,North,-999,-999.0,-999.0,-999,-99.99,,,0.00,weatherlink.com 1.10,2013-05-07 11:14:00,
2013-05-07 07:28:00,-999.0,-99.9,29.97,North,-999,-999.0,-999.0,-999,-99.99,,,0.00,weatherlink.com 1.10,2013-05-07 11:28:00,
2013-05-07 07:45:00,-999.0,-99.9,29.98,North,-999,-999.0,-999.0,-999,-99.99,,,0.00,weatherlink.com 1.10,2013-05-07 11:45:00,
2013-05-07 08:02:00,-999.0,-99.9,29.98,North,-999,-999.0,-999.0,-999,-99.99,,,0.00,weatherlink.com 1.10,2013-05-07 12:02:00,
2013-05-07 08:19:00,-999.0,-99.9,29.98,North,-999,-999.0,-999.0,-999,-99.99,,,0.00,weatherlink.com 1.10,2013-05-07 12:19:00,
2013-05-07 08:36:00,63.0,-99.9,29.98,West,279,8.0,-999.0,-999,-99.99,,,0.00,weatherlink.com 1.10,2013-05-07 12:36:00,
2013-05-07 08:52:00,64.2,55.0,29.97,West,261,5.0,-999.0,72,-99.99,,,0.00,weatherlink.com 1.10,2013-05-07 12:52:00,
2013-05-07 09:09:00,65.1,55.0,29.97,WSW,241,3.0,-999.0,71,-99.99,,,0.00,weatherlink.com 1.10,2013-05-07 13:09:00,
2013-05-07 09:26:00,65.7,55.0,29.98,WNW,302,5.0,-999.0,68,-99.99,,,0.00,weatherlink.com 1.10,2013-05-07 13:26:00,
2013-05-07 09:42:00,66.2,55.0,29.98,NNE,19,0.0,-999.0,67,-99.99,,,0.00,weatherlink.com 1.10,2013-05-07 13:42:00,
2013-05-07 09:58:00,67.3,55.0,29.98,West,277,8.0,-999.0,64,-99.99,,,0.00,weatherlink.com 1.10,2013-05-07 13:58:00,
2013-05-07 10:15:00,67.9,53.0,29.98,West,281,8.0,-999.0,60,-99.99,,,0.00,weatherlink.com 1.10,2013-05-07 14:15:00,
2013-05-07 10:32:00,69.2,55.0,29.99,NNW,337,5.0,-999.0,60,-99.99,,,0.00,weatherlink.com 1.10,2013-05-07 14:32:00,
2013-05-07 10:48:00,69.2,53.0,29.99,WNW,291,8.0,-999.0,57,-99.99,,,0.00,weatherlink.com 1.10,2013-05-07 14:48:00,
2013-05-07 11:04:00,69.8,54.0,29.99,North,350,7.0,-999.0,57,-99.99,,,0.00,weatherlink.com 1.10,2013-05-07 15:04:00,
2013-05-07 11:21:00,70.7,54.0,29.99,NNW,336,3.0,-999.0,55,-99.99,,,0.00,weatherlink.com 1.10,2013-05-07 15:21:00,
2013-05-07 11:37:00,70.7,54.0,29.99,NW,309,16.0,-999.0,55,-99.99,,,0.00,weatherlink.com 1.10,2013-05-07 15:37:00,
2013-05-07 11:53:00,71.6,54.0,29.99,WNW,296,12.0,-999.0,54,-99.99,,,0.00,weatherlink.com 1.10,2013-05-07 15:53:00,
2013-05-07 12:11:00,72.2,53.0,29.98,West,278,7.0,-999.0,52,-99.99,,,0.00,weatherlink.com 1.10,2013-05-07 16:11:00,
2013-05-07 12:26:00,73.0,55.0,29.98,WSW,257,13.0,-999.0,53,-99.99,,,0.00,weatherlink.com 1.10,2013-05-07 16:26:00,
2013-05-07 12:43:00,73.7,55.0,29.97,WSW,242,7.0,-999.0,52,-99.99,,,0.00,weatherlink.com 1.10,2013-05-07 16:43:00,
2013-05-07 13:00:00,74.7,56.0,29.97,WSW,257,13.0,-999.0,52,-99.99,,,0.00,weatherlink.com 1.10,2013-05-07 17:00:00,
2013-05-07 13:16:00,74.5,55.0,29.96,WNW,290,2.0,-999.0,51,-99.99,,,0.00,weatherlink.com 1.10,2013-05-07 17:16:00,
2013-05-07 13:32:00,75.5,54.0,29.96,WNW,284,16.0,-999.0,48,-99.99,,,0.00,weatherlink.com 1.10,2013-05-07 17:32:00,
2013-05-07 13:48:00,76.8,55.0,29.95,WNW,290,14.0,-999.0,47,-99.99,,,0.00,weatherlink.com 1.10,2013-05-07 17:48:00,
2013-05-07 14:05:00,74.6,55.0,29.95,West,279,11.0,-999.0,51,-99.99,,,0.00,weatherlink.com 1.10,2013-05-07 18:05:00,
2013-05-07 14:22:00,75.6,56.0,29.94,NE,48,6.0,-999.0,50,-99.99,,,0.00,weatherlink.com 1.10,2013-05-07 18:22:00,
2013-05-07 14:39:00,75.5,55.0,29.94,West,276,20.0,-999.0,50,-99.99,,,0.00,weatherlink.com 1.10,2013-05-07 18:39:00,
2013-05-07 14:55:00,76.3,56.0,29.94,WNW,292,14.0,-999.0,49,-99.99,,,0.00,weatherlink.com 1.10,2013-05-07 18:55:00,
2013-05-07 15:11:00,76.0,57.0,29.93,WNW,282,7.0,-999.0,52,-99.99,,,0.00,weatherlink.com 1.10,2013-05-07 19:11:00,
2013-05-07 15:28:00,75.9,56.0,29.92,WNW,289,11.0,-999.0,50,-99.99,,,0.00,weatherlink.com 1.10,2013-05-07 19:28:00,
2013-05-07 15:44:00,75.9,56.0,29.92,NW,323,7.0,-999.0,50,-99.99,,,0.00,weatherlink.com 1.10,2013-05-07 19:44:00,
2013-05-07 16:00:00,76.8,57.0,29.92,North,360,5.0,-999.0,50,-99.99,,,0.00,weatherlink.com 1.10,2013-05-07 20:00:00,
2013-05-07 16:17:00,75.3,56.0,29.92,WNW,302,14.0,-999.0,52,-99.99,,,0.00,weatherlink.com 1.10,2013-05-07 20:17:00,
2013-05-07 16:33:00,75.3,57.0,29.92,West,274,9.0,-999.0,54,-99.99,,,0.00,weatherlink.com 1.10,2013-05-07 20:33:00,
2013-05-07 16:50:00,75.2,57.0,29.92,WNW,291,11.0,-999.0,54,-99.99,,,0.00,weatherlink.com 1.10,2013-05-07 20:50:00,
2013-05-07 17:07:00,75.0,58.0,29.92,West,276,8.0,-999.0,55,-99.99,,,0.00,weatherlink.com 1.10,2013-05-07 21:07:00,
2013-05-07 17:23:00,75.4,57.0,29.92,WNW,296,9.0,-999.0,54,-99.99,,,0.00,weatherlink.com 1.10,2013-05-07 21:23:00,
2013-05-07 17:39:00,75.0,57.0,29.93,WNW,286,20.0,-999.0,54,-99.99,,,0.00,weatherlink.com 1.10,2013-05-07 21:39:00,
2013-05-07 17:55:00,74.9,57.0,29.93,WNW,283,20.0,-999.0,54,-99.99,,,0.00,weatherlink.com 1.10,2013-05-07 21:55:00,
2013-05-07 18:12:00,75.1,57.0,29.93,WNW,294,12.0,-999.0,54,-99.99,,,0.00,weatherlink.com 1.10,2013-05-07 22:12:00,
2013-05-07 18:28:00,75.5,57.0,29.93,WNW,293,11.0,-999.0,53,-99.99,,,0.00,weatherlink.com 1.10,2013-05-07 22:28:00,
2013-05-07 18:44:00,75.3,57.0,29.93,WNW,293,12.0,-999.0,53,-99.99,,,0.00,weatherlink.com 1.10,2013-05-07 22:44:00,
2013-05-07 19:02:00,74.9,57.0,29.93,West,267,6.0,-999.0,54,-99.99,,,0.00,weatherlink.com 1.10,2013-05-07 23:02:00,
2013-05-07 19:18:00,74.8,56.0,29.93,NNW,327,7.0,-999.0,53,-99.99,,,0.00,weatherlink.com 1.10,2013-05-07 23:18:00,
2013-05-07 19:34:00,74.2,57.0,29.94,WNW,283,2.0,-999.0,55,-99.99,,,0.00,weatherlink.com 1.10,2013-05-07 23:34:00,
2013-05-07 19:51:00,73.6,57.0,29.94,NNE,14,8.0,-999.0,57,-99.99,,,0.00,weatherlink.com 1.10,2013-05-07 23:51:00,
2013-05-07 20:07:00,72.7,58.0,29.95,NW,326,10.0,-999.0,60,-99.99,,,0.00,weatherlink.com 1.10,2013-05-08 00:07:00,
2013-05-07 20:23:00,72.1,58.0,29.96,North,9,4.0,-999.0,61,-99.99,,,0.00,weatherlink.com 1.10,2013-05-08 00:23:00,
2013-05-07 20:40:00,71.4,58.0,29.97,NNW,347,8.0,-999.0,63,-99.99,,,0.00,weatherlink.com 1.10,2013-05-08 00:40:00,
2013-05-07 20:56:00,70.9,58.0,29.97,NW,305,7.0,-999.0,64,-99.99,,,0.00,weatherlink.com 1.10,2013-05-08 00:56:00,
2013-05-07 21:13:00,70.4,58.0,29.98,NNW,338,9.0,-999.0,65,-99.99,,,0.00,weatherlink.com 1.10,2013-05-08 01:13:00,
2013-05-07 21:29:00,70.0,58.0,29.99,North,11,0.0,-999.0,67,-99.99,,,0.00,weatherlink.com 1.10,2013-05-08 01:29:00,
2013-05-07 21:45:00,69.6,59.0,30.00,WNW,302,5.0,-999.0,69,-99.99,,,0.00,weatherlink.com 1.10,2013-05-08 01:45:00,
2013-05-07 22:03:00,69.0,60.0,30.00,NW,323,5.0,-999.0,72,-99.99,,,0.00,weatherlink.com 1.10,2013-05-08 02:03:00,
2013-05-07 22:19:00,68.6,60.0,30.01,NW,323,4.0,-999.0,74,-99.99,,,0.00,weatherlink.com 1.10,2013-05-08 02:19:00,
2013-05-07 22:35:00,68.3,60.0,30.01,NW,313,3.0,-999.0,76,-99.99,,,0.00,weatherlink.com 1.10,2013-05-08 02:35:00,
2013-05-07 22:52:00,67.9,60.0,30.01,NW,309,3.0,-999.0,77,-99.99,,,0.00,weatherlink.com 1.10,2013-05-08 02:52:00,
2013-05-07 23:11:00,67.7,60.0,30.01,WNW,283,5.0,-999.0,77,-99.99,,,0.00,weatherlink.com 1.10,2013-05-08 03:11:00,
2013-05-07 23:22:00,67.5,60.0,30.01,WNW,291,2.0,-999.0,78,-99.99,,,0.00,weatherlink.com 1.10,2013-05-08 03:22:00,
2013-05-07 23:37:00,67.3,61.0,30.01,WNW,292,5.0,-999.0,79,-99.99,,,0.00,weatherlink.com 1.10,2013-05-08 03:37:00,
2013-05-07 23:52:00,66.9,61.0,30.01,WNW,294,3.0,-999.0,80,-99.99,,,0.00,weatherlink.com 1.10,2013-05-08 03:52:00,